465  
NZUS93 KARX 180610  
HRRWXR  
 
CURRENT HOURLY OBSERVATIONS ACROSS  
MUCH OF THE UPPER MISSISSIPPI VALLEY  
NATIONAL WEATHER SERVICE LA CROSSE WI  
100 AM CDT FRI SEP 18 2020  
 
   
..SOUTHEAST MINNESOTA
 
 
 
CITY SKY/WX TMP DP RH WIND PRES REMARKS  
ROCHESTER CLEAR 44 37 76 N8 30.33S  
ROCHESTER/MAYO FAIR 46 37 73 N5 30.34S  
WINONA CLEAR 48 34 57 CALM 30.34S  
AUSTIN CLEAR 45 39 81 CALM 30.33R  
ALBERT LEA PTCLDY 43 37 81 N5 30.33S  
DODGE CENTER CLEAR 43 37 81 N3 30.33S  
PRESTON CLEAR 43 36 77 N6 30.33R  
OWATONNA CLEAR 39 39 100 CALM 30.34S  
FARIBAULT CLEAR 39 39 100 CALM 30.35R  

 
   
..ELSEWHERE IN MINNESOTA
 
 
 
CITY SKY/WX TMP DP RH WIND PRES REMARKS  
MINNEAPOLIS PTCLDY 49 39 68 CALM 30.36R  
INTNL FALLS CLEAR 26 22 84 CALM 30.37S  
DULUTH CLEAR 34 26 72 N5 30.37R WCI 30  
RED WING CLEAR 45 36 70 CALM 30.34R  
REDWOOD FALLS CLEAR 44 39 82 CALM 30.36R  
MANKATO PTCLDY 45 39 79 N3 30.35S  
WORTHINGTON CLOUDY 48 37 65 NE8 30.35R  
FAIRMONT CLEAR 43 39 86 N6 30.35R  

 
   
..SOUTHWEST WISCONSIN
 
 
 
CITY SKY/WX TMP DP RH WIND PRES REMARKS  
LA CROSSE CLEAR 50 35 56 MISG 30.32R  
PRAIRIE DU CHI CLEAR 50 39 64 CALM 30.28S  
BOSCOBEL CLEAR 47 41 80 E3 30.28R  
LONE ROCK CLEAR 48 40 73 W3 30.27R  
PLATTEVILLE CLEAR 47 44 91 N7 30.26S  
FORT MC COY CLEAR 38 36 93 CALM N/A  
CAMP DOUGLAS CLEAR 43 42 93 N7 30.30R  
MAUSTON-NEW LI PTCLDY 44 41 88 NW3 30.29R  
VIROQUA FAIR 44 41 89 N6 30.30R  
WIS DELLS CLEAR 44 40 87 CALM 30.28R  

 
   
..ELSEWHERE IN WISCONSIN
 
 
 
CITY SKY/WX TMP DP RH WIND PRES REMARKS  
MILWAUKEE CLOUDY 58 44 60 NE10 30.25R  
MADISON MOCLDY 47 46 97 N5 30.26R  
GREEN BAY CLOUDY 47 40 76 N9 30.32R  
EAU CLAIRE CLEAR 41 33 73 N3 30.34R  
BLACK RVR FLS FAIR 38 35 90 NE3 30.33S  
MEDFORD CLEAR 33 30 87 CALM 30.34R  
WAUSAU CLEAR 43 32 65 N5 30.33R  
WIS RAPIDS PTCLDY 47 35 63 NE9 30.32R  
MARSHFIELD CLEAR 44 33 65 NE9 30.32R  
RICE LAKE CLEAR 33 33 99 CALM 30.38R  

 
   
..NORTHEAST IOWA
 
 
 
CITY SKY/WX TMP DP RH WIND PRES REMARKS  
WATERLOO CLOUDY 53 38 56 N6 30.28R  
DUBUQUE CLEAR 50 40 68 N8 30.26S  
DECORAH PTCLDY 48 39 71 N8 30.29S  
MASON CITY PTCLDY 45 39 79 N7 30.33R  
CHARLES CITY CLEAR 46 39 76 N9 30.30S  
OELWEIN CLOUDY 50 39 66 N10 30.28S  

 
   
..ELSEWHERE IN IOWA
 
 
 
CITY SKY/WX TMP DP RH WIND PRES REMARKS  
DES MOINES PTCLDY 54 40 59 NE12 30.26R  
IOWA CITY CLEAR 54 43 66 NE7 30.25S  
FORT DODGE CLOUDY 51 42 71 NE5 30.31R  
MARSHALLTOWN CLOUDY 52 42 69 NE7 30.27R  
CEDAR RAPIDS CLOUDY 54 41 61 NE12G22 30.24R  

 
   
..NORTHERN ILLINOIS
 
 
 
CITY SKY/WX TMP DP RH WIND PRES REMARKS  
CHICAGO-OHARE PTCLDY 60 48 64 NE8 30.21R  
CHICAGO-MIDWAY PTCLDY 61 46 57 NE10 30.20R  
MOLINE CLEAR 57 47 69 VRB5 30.22R  
ROCKFORD CLEAR 53 47 79 N6 30.26R  
PEORIA CLEAR 56 48 74 CALM 30.20R  

 
 
NOTE: "FAIR" INDICATES FEW OR NO CLOUDS BELOW 12,000 FEET WITH NO  
SIGNIFICANT WEATHER AND/OR OBSTRUCTIONS TO VISIBILITY. WIND  
SPEEDS ARE IN MILES-PER-HOUR.  
 
 
CLICK HERE TO GO TO PREVIOUS BULLETINS.

The Nexlab WI Page
The Nexlab IA Page
The Nexlab MN Page Main Text Page